BLOCK DM-SL R/B, 28138

Orbit data source: Space-Track

BLOCK DM-SL R/B, 28138 is space debris in HEO originally from a launch on Sun, 11 Jan 2004 UTC launched from the Sea Launch (SEAL). Debris objects in space refer to the collection of defunct objects orbiting the Earth. Examples of debris include non-operational satellites, rocket bodies, and fragments generated from explosions, collisions, or faulty payload assembly.

Loading next visibility...
Identifier
28138, 2004-001B
Orbit
HEO
Country
Flag of UnknownUnknown / SEAL
Related business
Manufacturer
RKKE
Mission
Spacecraft
Bus & Motor
BLOK DM2, 11D58M
Mass
~3,210 kg wet, 3,210 kg dry
Launch date (UTC)
2004-01-11 (22 years ago)
Launch vehicle
Unknown
Launch site
Sea Launch (SEAL)
Object type
Payload
Rocket body
Debris
Shape & HBR
Cyl, 3.1 m
Radar Cross Section
23.684 m², Large (>1 m²)

Expand to show TLE details & history
Last TLE update: 14 hours ago

TLE from 14 hours ago
0 BLOCK DM-SL R/B
1 28138U 04001B   25260.86757669  .00000117  00000-0  21540-2 0  9999
2 28138   0.6738  29.0061 7147716 225.7700  22.2463  2.24733239178080
Epoch: 2025-09-17T20:49Z
TLE epoch observation values (Epoch: 2025-09-17T20:49:18.626Z)
Latitude
-0.33442°
Longitude
50.63682°
Altitude
8,488.089 km
Speed
6.118 km/s
True Right ascension
00h 00m 00s
True Declination
0° 20' 00"
Sunlit
Object was in full shadow at epoch
Visualization orbit readout
Latitude
Unknown
Longitude
Unknown
Altitude
Unknown
Speed
Unknown
Apparent Right ascension
Unknown
Apparent Declination
Unknown
Sunlit
N/A
Visualization observer readout
Local Sidereal Time
03:37:02
Azimuth
Unknown
Elevation
Unknown
Doppler factor
Unknown
Orbital elements
Apogee altitude
35,848.752 km
Perigee altitude
645.719 km
Semi-major axis
24,625.372 km
Eccentricity
0.71477
Inclination
0.6738°
RAAN
29.0061°
Arg. of periapsis
225.77°
True anomaly
105.40307°
Mean anomaly
22.2463°
Eccentric anomaly
56.32924°
Mean motion
0.56165 °/min
Orbital period
640.96 mins
BSTAR
0.002154
Loading maneuver chart data...
Computing Atmospheric mass density...
Loading historical data...
Loading historical data...
Loading historical data...
Loading historical data...
Loading historical data...
Loading historical data...
Loading historical data...
Other satellites on launch #1 in the year 2004 (2004-01-11 UTC)

Documentation

Showing up to 5 results
|